Visibility
15.0 15.0 15.0 15.0 15.0 14.4 15.0 14.6 15.0 15.0 15.0 15.0 15.0 15.0 15.0 15.0 15.0 15.0 15.0 15.0 15.0 15.0 15.0 15.0 15.0 15.0 15.0 15.0 15.0 15.0 15.0 15.0 15.0 15.0 15.0 15.0 15.0 15.0 15.0 15.0 15.0 15.0 15.0 15.0 15.0 15.0 15.0
11.1 15.0 15.0 15.0 15.0 14.7 10.1 15.0 9.2 15.0 15.0 15.0 15.0 15.0 15.0 15.0 15.0 15.0 15.0 15.0 15.0 15.0 15.0 14.5 14.1 15.0 15.0 15.0 15.0 15.0 15.0 15.0 15.0 15.0 15.0 15.0 15.0 15.0 15.0 15.0 15.0 15.0 15.0 15.0 15.0 15.0 15.0
15.0 15.0 15.0 15.0 15.0 15.0 15.0 15.0 9.4 11.4 15.0 15.0 15.0 15.0 15.0 15.0 15.0 15.0 15.0 15.0 15.0 15.0 15.0 15.0 12.2 15.0 15.0 15.0 15.0 15.0 15.0 15.0 15.0 15.0 15.0 15.0 15.0 15.0 15.0 15.0 15.0 15.0 15.0 15.0 15.0 15.0 15.0
15.0 15.0 15.0 15.0 15.0 15.0 15.0 15.0 14.7 10.4 14.6 15.0 15.0 15.0 15.0 15.0 15.0 15.0 15.0 15.0 15.0 15.0 15.0 13.5 5.0 10.7 3.0 15.0 15.0 15.0 15.0 15.0 15.0 15.0 15.0 15.0 15.0 15.0 15.0 15.0 15.0 15.0 15.0 15.0 15.0 15.0 15.0
15.0 15.0 15.0 15.0 15.0 15.0 15.0 15.0 12.3 11.7 13.2 11.7 15.0 13.7 15.0 15.0 15.0 15.0 15.0 15.0 15.0 15.0 15.0 15.0 0.1 1.9 11.1 15.0 15.0 15.0 15.0 15.0 15.0 15.0 15.0 15.0 15.0 15.0 15.0 15.0 15.0 15.0 15.0 15.0 15.0 15.0 15.0
15.0 15.0 15.0 15.0 15.0 15.0 15.0 15.0 15.0 7.8 9.5 8.5 15.0 15.0 15.0 15.0 15.0 15.0 15.0 15.0 15.0 15.0 2.3 14.5 4.8 0.2 13.1 15.0 15.0 15.0 15.0 15.0 15.0 15.0 15.0 15.0 15.0 15.0 15.0 15.0 15.0 15.0 15.0 15.0 15.0 15.0 15.0
15.0 15.0 15.0 15.0 15.0 15.0 11.2 15.0 14.4 7.1 8.2 10.9 11.7 10.1 15.0 15.0 15.0 15.0 15.0 15.0 15.0 15.0 15.0 15.0 10.1 14.9 15.0 15.0 15.0 15.0 15.0 15.0 15.0 15.0 15.0 15.0 15.0 15.0 15.0 15.0 15.0 15.0 15.0 15.0 15.0 15.0 15.0
15.0 15.0 15.0 15.0 15.0 15.0 15.0 15.0 7.8 8.5 9.5 14.8 8.5 15.0 15.0 14.9 15.0 15.0 15.0 15.0 15.0 4.1 12.1 15.0 15.0 15.0 15.0 15.0 15.0 15.0 15.0 15.0 15.0 15.0 15.0 15.0 15.0 15.0 15.0 15.0 15.0 15.0 15.0 15.0 15.0 15.0 15.0
15.0 15.0 15.0 15.0 15.0 11.3 11.7 15.0 7.0 7.7 10.8 14.9 12.8 10.8 11.4 15.0 15.0 15.0 15.0 15.0 15.0 15.0 15.0 15.0 15.0 15.0 15.0 15.0 15.0 15.0 15.0 15.0 15.0 15.0 15.0 15.0 15.0 15.0 15.0 15.0 15.0 15.0 15.0 15.0 15.0 15.0 15.0
15.0 15.0 15.0 15.0 15.0 6.2 15.0 7.0 13.3 11.4 11.1 10.0 6.6 9.8 13.2 15.0 15.0 15.0 15.0 15.0 15.0 15.0 3.4 15.0 15.0 15.0 15.0 15.0 15.0 15.0 15.0 15.0 15.0 15.0 15.0 15.0 15.0 15.0 15.0 15.0 15.0 15.0 15.0 15.0 15.0 15.0 15.0
15.0 15.0 15.0 15.0 9.9 15.0 15.0 14.9 15.0 4.5 9.5 11.0 9.1 15.0 15.0 15.0 15.0 15.0 13.1 15.0 15.0 8.6 11.5 15.0 15.0 15.0 15.0 15.0 15.0 15.0 15.0 15.0 15.0 15.0 15.0 15.0 15.0 15.0 15.0 15.0 15.0 15.0 15.0 15.0 15.0 15.0 15.0
15.0 15.0 15.0 15.0 15.0 15.0 15.0 15.0 15.0 15.0 14.4 8.9 12.6 15.0 15.0 15.0 15.0 15.0 15.0 15.0 15.0 0.2 1.4 15.0 15.0 15.0 12.1 15.0 15.0 15.0 15.0 15.0 15.0 15.0 15.0 15.0 15.0 15.0 15.0 15.0 15.0 15.0 15.0 15.0 15.0 15.0 15.0
15.0 12.9 10.4 15.0 15.0 9.5 15.0 15.0 15.0 15.0 13.1 11.8 14.0 13.4 15.0 15.0 15.0 15.0 15.0 10.9 5.7 0.1 7.4 15.0 13.4 15.0 5.3 12.5 15.0 15.0 15.0 15.0 15.0 5.2 0.1 15.0 15.0 15.0 15.0 15.0 15.0 15.0 15.0 15.0 11.0 15.0 15.0
15.0 15.0 7.9 15.0 5.6 8.3 14.6 15.0 15.0 15.0 15.0 15.0 12.0 14.5 12.4 10.8 13.2 8.6 14.5 2.6 0.4 15.0 15.0 15.0 9.1 15.0 3.8 15.0 10.9 15.0 15.0 13.9 15.0 15.0 15.0 15.0 15.0 15.0 15.0 15.0 15.0 15.0 15.0 15.0 13.7 15.0 15.0
15.0 15.0 15.0 10.2 15.0 15.0 5.4 14.7 15.0 10.2 9.0 9.5 14.2 12.3 7.3 14.5 15.0 14.2 3.5 0.1 1.8 15.0 15.0 15.0 12.2 3.2 0.3 7.9 4.7 8.3 14.9 13.5 15.0 15.0 15.0 15.0 15.0 15.0 15.0 15.0 15.0 15.0 15.0 15.0 15.0 15.0 15.0
15.0 15.0 15.0 15.0 15.0 15.0 15.0 15.0 14.4 8.9 13.4 11.8 10.3 9.9 14.9 15.0 10.0 7.6 0.4 1.2 15.0 15.0 15.0 14.3 0.2 4.2 6.3 2.3 0.4 8.4 8.7 15.0 15.0 15.0 15.0 15.0 15.0 15.0 15.0 15.0 15.0 15.0 15.0 11.0 10.7 0.1 14.7
15.0 15.0 15.0 15.0 10.1 15.0 15.0 15.0 11.4 6.5 10.5 13.6 10.7 0.9 14.0 15.0 14.2 0.9 1.9 13.9 15.0 15.0 15.0 11.1 15.0 0.3 2.9 4.7 0.0 3.7 10.1 15.0 15.0 15.0 15.0 15.0 15.0 15.0 15.0 15.0 15.0 15.0 15.0 15.0 10.8 12.1 15.0
14.4 12.5 15.0 15.0 15.0 15.0 15.0 15.0 15.0 15.0 4.2 10.9 0.3 0.0 13.2 15.0 0.1 2.2 3.2 15.0 15.0 15.0 15.0 15.0 15.0 14.6 11.0 13.5 1.3 1.6 0.0 11.8 15.0 15.0 15.0 15.0 15.0 15.0 15.0 15.0 15.0 15.0 15.0 15.0 4.4 13.6 15.0
10.6 15.0 15.0 13.0 12.0 15.0 14.7 14.6 13.6 11.3 7.4 6.0 0.0 0.4 7.9 7.6 0.6 1.1 0.7 15.0 15.0 15.0 15.0 15.0 15.0 15.0 15.0 2.3 0.1 3.8 3.5 6.7 5.9 4.6 12.6 14.5 1.3 1.3 11.8 15.0 15.0 15.0 15.0 15.0 13.8 0.1 15.0
13.9 15.0 15.0 15.0 15.0 15.0 15.0 12.7 15.0 8.8 6.8 6.0 0.0 0.0 0.0 0.0 5.5 10.1 4.4 2.8 4.6 15.0 15.0 15.0 15.0 15.0 15.0 15.0 9.7 1.0 15.0 15.0 15.0 5.4 10.8 2.2 1.7 3.4 11.8 15.0 15.0 9.2 15.0 15.0 12.4 1.7 15.0
15.0 15.0 15.0 12.5 13.7 15.0 15.0 14.6 15.0 12.4 6.1 6.7 0.0 0.1 2.5 0.1 0.1 3.5 4.4 1.6 2.0 3.0 15.0 15.0 14.9 15.0 15.0 15.0 15.0 10.3 6.2 15.0 15.0 14.4 9.7 0.0 0.0 3.9 15.0 15.0 15.0 10.4 15.0 15.0 13.3 14.9 14.8
15.0 15.0 15.0 14.9 15.0 15.0 15.0 15.0 9.1 6.3 5.3 3.4 0.0 0.0 14.6 15.0 12.8 1.1 1.6 1.9 8.9 15.0 15.0 7.5 1.3 13.9 14.3 15.0 15.0 14.9 3.8 15.0 15.0 15.0 5.8 1.7 0.1 4.1 2.2 15.0 15.0 15.0 15.0 15.0 15.0 15.0 15.0
15.0 15.0 14.5 15.0 14.8 15.0 15.0 15.0 12.9 15.0 5.4 0.3 1.5 12.4 1.0 14.0 11.2 5.5 9.0 7.9 15.0 15.0 15.0 15.0 15.0 14.8 13.3 15.0 11.0 12.3 13.2 9.2 15.0 11.7 1.6 0.5 0.1 0.1 0.1 15.0 15.0 1.2 15.0 15.0 15.0 15.0 15.0
15.0 15.0 13.3 12.2 13.9 10.1 8.2 10.5 15.0 11.4 6.2 5.3 15.0 2.9 0.0 0.2 1.8 6.2 4.8 3.3 1.4 15.0 2.9 15.0 7.2 2.8 15.0 15.0 15.0 15.0 15.0 15.0 15.0 15.0 10.5 0.1 0.8 0.1 0.3 8.6 0.0 13.0 15.0 15.0 14.6 15.0 15.0
15.0 15.0 15.0 15.0 15.0 15.0 14.6 14.0 8.0 7.7 8.6 6.3 7.7 15.0 0.1 0.6 15.0 15.0 15.0 15.0 15.0 15.0 15.0 15.0 15.0 13.9 13.7 8.4 0.3 0.2 5.9 4.6 15.0 15.0 15.0 8.1 0.1 0.0 0.1 1.7 9.3 15.0 15.0 15.0 15.0 15.0 15.0
15.0 15.0 15.0 15.0 15.0 14.9 15.0 15.0 14.9 14.1 6.8 7.1 8.6 14.6 1.8 0.0 2.2 15.0 14.5 15.0 5.3 2.9 10.0 15.0 15.0 15.0 9.8 0.1 0.1 0.2 4.4 14.7 15.0 0.5 15.0 15.0 5.8 3.4 3.7 0.1 1.2 15.0 15.0 15.0 8.8 13.3 15.0
15.0 15.0 15.0 15.0 15.0 15.0 14.1 12.6 12.1 13.3 13.1 7.0 8.5 14.4 0.3 0.0 4.3 15.0 3.8 4.5 12.0 6.1 1.4 15.0 5.0 4.7 11.0 0.1 0.1 0.7 13.7 9.4 6.5 15.0 1.4 0.1 0.1 0.1 6.4 0.4 3.4 15.0 15.0 15.0 2.0 5.3 15.0
15.0 15.0 15.0 15.0 15.0 15.0 15.0 15.0 15.0 15.0 15.0 8.9 6.7 15.0 0.1 0.0 3.1 15.0 15.0 3.3 10.9 6.0 0.1 9.4 1.6 2.9 0.1 0.1 0.3 1.9 15.0 15.0 15.0 15.0 15.0 15.0 8.7 0.8 0.2 0.0 1.1 12.9 15.0 12.8 15.0 15.0 15.0
15.0 15.0 15.0 15.0 15.0 15.0 15.0 15.0 15.0 15.0 15.0 5.9 0.3 15.0 4.6 0.0 0.1 15.0 15.0 15.0 15.0 15.0 9.7 1.6 2.3 1.9 10.3 1.6 3.2 5.6 5.2 3.1 15.0 7.9 4.1 1.4 0.0 0.0 0.0 0.0 15.0 15.0 15.0 14.6 15.0 15.0 15.0